User: anonymous   Login
Location: *
(51.2167°N, 10.0667°E)
Time: 14:01:33
(UTC+00:00)
Language:

Cosmos 2278 Rocket - Orbit

View from above orbital plane
View from above orbital plane
View from above satellite
View from above satellite

Ground track
Ground track

The orbit data is extracted from the following two-line orbital elements,

1 23088U 94023B   20056.33920096 -.00000023 +00000-0 +12622-4 0  9997
2 23088 071.0024 018.5365 0002340 359.6842 000.4278 14.14685625334318
Epoch (UTC): 25 February 2020 08:08:26
Eccentricity: 0.0002340
inclination: 71.0024°
perigee height: 841 km
apogee height: 845 km
right ascension of ascending node: 18.5365°
argument of perigee: 359.6842°
revolutions per day: 14.14685625
mean anomaly at epoch: 0.4278°
orbit number at epoch: 33431

The dashed part of the orbit path shows where the satellite is in the earth's shadow,  

DLR